EW2281 Weather Reports


Display with metric or nautical units.
time (UTC)temp
F
wind
direction
speed
MPH
gust
MPH
rain 1hr
in
rain 24hr
in
rain mn
in
humidity
%
barometer
mb
20260507214940 61 125 1.0 6.0 0.00 0.00 0.00 47 963.7
20260507214439 60 336 1.0 6.0 0.00 0.00 0.00 45 963.8
20260507213937 60 27 1.0 7.0 0.00 0.00 0.00 45 963.7
20260507213437 60 246 1.0 7.0 0.00 0.00 0.00 42 963.7
20260507212936 60 256 2.0 9.0 0.00 0.00 0.00 44 963.7
20260507212438 60 34 2.0 9.0 0.00 0.00 0.00 43 963.6
20260507211938 60 290 2.0 10.0 0.00 0.00 0.00 44 963.6
20260507211659 60 36 1.0 10.0 0.00 0.00 0.00 43 963.6
20260507210934 61 299 0.0 3.0 0.00 0.00 0.00 44 963.7
20260507210435 60 88 1.0 7.0 0.00 0.00 0.00 44 963.6
20260507205933 60 286 1.0 7.0 0.00 0.00 0.00 44 963.7
20260507205432 60 271 1.0 7.0 0.00 0.00 0.00 45 963.7
20260507204932 60 30 2.0 8.0 0.00 0.00 0.00 44 963.6
20260507204430 61 281 2.0 8.0 0.00 0.00 0.00 42 963.7
20260507203932 62 331 3.0 9.0 0.00 0.00 0.00 43 963.7
20260507203431 62 350 2.0 9.0 0.00 0.00 0.00 43 963.7
20260507202932 61 30 1.0 6.0 0.00 0.00 0.00 42 963.8
20260507202427 61 304 1.0 6.0 0.00 0.00 0.00 40 963.8
20260507202149 61 250 1.0 10.0 0.00 0.00 0.00 41 963.8
20260507201428 61 226 2.0 10.0 0.00 0.00 0.00 45 963.8
20260507200926 61 342 2.0 6.0 0.00 0.00 0.00 41 963.8
20260507200648 61 342 2.0 5.0 0.00 0.00 0.00 43 963.8
20260507195927 61 276 2.0 7.0 0.00 0.00 0.00 42 964.0
20260507195426 62 290 1.0 7.0 0.00 0.00 0.00 41 964.0
20260507194926 61 313 1.0 6.0 0.00 0.00 0.00 42 963.9
20260507194428 62 309 1.0 6.0 0.00 0.00 0.00 40 964.0
20260507193922 60 229 1.0 4.0 0.00 0.00 0.00 44 964.1
20260507193422 60 298 1.0 5.0 0.00 0.00 0.00 43 964.1
20260507192924 60 321 2.0 9.0 0.00 0.00 0.00 42 964.2
20260507192422 61 346 2.0 9.0 0.00 0.00 0.00 41 964.2
20260507191923 62 311 2.0 8.0 0.00 0.00 0.00 43 964.2
20260507191643 62 266 2.0 8.0 0.00 0.00 0.00 42 964.2
20260507190923 61 25 1.0 6.0 0.00 0.00 0.00 44 964.2
20260507190423 60 134 1.0 5.0 0.00 0.00 0.00 44 964.3
20260507185922 60 302 1.0 6.0 0.00 0.00 0.00 46 964.4
20260507185422 60 271 2.0 6.0 0.00 0.00 0.00 46 964.4
20260507184924 61 227 2.0 8.0 0.00 0.00 0.00 42 964.5
20260507184422 60 334 2.0 8.0 0.00 0.00 0.00 48 964.5
20260507183923 59 330 2.0 7.0 0.00 0.00 0.00 47 964.5
20260507183422 59 44 2.0 13.0 0.00 0.00 0.00 45 964.5
20260507182923 60 51 2.0 13.0 0.00 0.00 0.00 44 964.6
20260507182424 61 205 2.0 6.0 0.00 0.00 0.00 41 964.6
20260507181925 61 289 2.0 7.0 0.00 0.00 0.00 47 964.4
20260507181423 61 326 1.0 7.0 0.00 0.00 0.00 45 964.7
20260507180922 61 304 1.0 10.0 0.00 0.00 0.00 46 964.7
20260507180423 60 238 2.0 10.0 0.00 0.00 0.00 40 964.7
20260507180411 60 346 2.0 10.0 0.00 0.00 0.00 43 964.8
20260507175857 59 269 2.0 10.0 0.00 0.00 0.00 43 964.9
20260507174903 59 285 2.0 7.0 0.00 0.00 0.00 45 965.0
20260507174621 59 326 1.0 7.0 0.00 0.01 0.00 43 965.0
20260507173855 59 315 1.0 9.0 0.00 0.01 0.00 46 965.2
20260507173355 60 306 3.0 13.0 0.00 0.01 0.00 44 965.2
20260507172854 61 342 3.0 13.0 0.00 0.01 0.00 42 965.2
20260507172354 60 347 2.0 9.0 0.00 0.01 0.00 44 965.2
20260507171853 59 219 2.0 7.0 0.00 0.01 0.00 43 965.3
20260507171353 60 318 2.0 10.0 0.00 0.02 0.00 41 965.3
20260507170854 60 295 3.0 13.0 0.00 0.02 0.00 42 965.5
20260507170351 60 295 3.0 13.0 0.00 0.02 0.00 44 965.5
20260507165851 60 27 2.0 10.0 0.00 0.02 0.00 42 965.4
20260507165352 60 289 1.0 10.0 0.00 0.02 0.00 43 965.5
20260507164851 60 293 2.0 8.0 0.00 0.02 0.00 44 965.7
20260507164350 60 319 2.0 11.0 0.00 0.02 0.00 43 965.7
20260507163849 60 322 2.0 11.0 0.00 0.02 0.00 47 965.7
20260507163348 60 282 2.0 8.0 0.00 0.02 0.00 42 965.8
20260507162849 59 199 2.0 7.0 0.00 0.02 0.00 48 965.7
20260507162349 59 274 2.0 7.0 0.00 0.02 0.00 44 965.9
20260507161848 59 195 2.0 7.0 0.00 0.02 0.00 46 966.0
20260507161344 59 242 1.0 7.0 0.00 0.02 0.00 45 966.0
20260507160844 59 200 0.0 3.0 0.00 0.02 0.00 49 966.0
20260507160342 58 263 1.0 6.0 0.00 0.02 0.00 49 966.1
20260507155842 57 303 2.0 7.0 0.00 0.02 0.00 52 966.2
20260507155342 56 52 2.0 9.0 0.00 0.03 0.00 46 966.4
20260507155106 57 226 2.0 9.0 0.00 0.03 0.00 47 966.4
20260507154605 56 285 2.0 13.0 0.00 0.03 0.00 49 966.3
20260507153842 56 9 2.0 13.0 0.00 0.03 0.00 50 966.4
20260507153340 56 286 2.0 9.0 0.00 0.03 0.00 47 966.4
20260507153059 56 11 2.0 9.0 0.00 0.03 0.00 46 966.6
20260507152341 57 49 2.0 7.0 0.00 0.03 0.00 54 966.6
20260507151841 56 214 2.0 7.0 0.00 0.03 0.00 51 966.7
20260507151825 56 28 2.0 8.0 0.00 0.03 0.00 49 966.9
20260507151321 56 300 3.0 8.0 0.00 0.03 0.00 51 967.0
20260507150342 56 50 2.0 9.0 0.00 0.03 0.00 50 967.0
20260507145841 56 350 1.0 9.0 0.00 0.03 0.00 53 967.0
20260507145340 56 355 1.0 6.0 0.00 0.03 0.00 53 967.1
20260507144835 55 298 1.0 5.0 0.00 0.03 0.00 53 967.2
20260507144329 55 298 1.0 4.0 0.00 0.03 0.00 57 967.2
20260507143822 54 252 1.0 4.0 0.00 0.03 0.00 55 967.3
20260507143317 54 46 1.0 4.0 0.00 0.03 0.00 53 967.4
20260507142810 54 210 0.0 4.0 0.00 0.03 0.00 54 967.4
20260507142537 54 304 0.0 2.0 0.00 0.03 0.00 59 967.5
20260507141759 53 234 0.0 5.0 0.00 0.03 0.00 60 967.6
20260507141253 52 151 0.0 5.0 0.00 0.03 0.00 66 967.7
20260507140747 52 311 0.0 2.0 0.00 0.04 0.00 63 967.7
20260507140508 52 198 0.0 2.0 0.00 0.04 0.00 65 967.7
20260507135957 51 171 0.0 1.0 0.00 0.04 0.00 62 967.7
20260507135228 51 151 0.0 2.0 0.00 0.04 0.00 66 967.8
20260507134723 50 303 0.0 2.0 0.00 0.04 0.00 64 967.8
20260507134217 50 270 0.0 2.0 0.00 0.05 0.00 65 967.7
20260507133711 50 14 0.0 2.0 0.00 0.05 0.00 65 967.8
20260507133204 49 234 0.0 2.0 0.00 0.05 0.00 63 967.8
20260507132658 49 293 0.0 2.0 0.00 0.05 0.00 66 967.9
20260507132414 49 300 0.0 1.0 0.00 0.05 0.00 67 967.9
20260507131649 49 304 0.0 1.0 0.00 0.06 0.00 66 968.0
20260507131150 48 311 0.0 0.0 0.00 0.06 0.00 71 968.0
20260507130649 48 311 0.0 0.0 0.00 0.06 0.00 70 968.0
20260507130146 48 292 0.0 0.0 0.00 0.06 0.00 69 968.2
20260507125647 47 223 0.0 0.0 0.00 0.06 0.00 69 968.2
20260507125141 47 285 0.0 2.0 0.00 0.06 0.00 71 968.2
20260507124641 47 156 0.0 2.0 0.00 0.06 0.00 72 968.2
20260507124138 46 167 0.0 1.0 0.00 0.06 0.00 76 968.3
20260507123857 46 283 0.0 1.0 0.00 0.06 0.00 74 968.3
20260507123139 46 283 0.0 1.0 0.00 0.06 0.00 76 968.3
20260507122636 45 284 0.0 1.0 0.00 0.06 0.00 75 968.2
20260507122135 45 236 0.0 0.0 0.00 0.06 0.00 75 968.2
20260507121635 45 213 0.0 0.0 0.00 0.07 0.00 76 968.2
20260507121134 44 213 0.0 0.0 0.00 0.09 0.00 77 968.2
20260507120632 44 324 0.0 0.0 0.00 0.10 0.00 77 968.2
20260507120131 43 39 0.0 0.0 0.00 0.11 0.00 78 968.1
20260507115629 43 39 0.0 0.0 0.00 0.12 0.00 79 968.1
20260507115130 42 39 0.0 1.0 0.00 0.13 0.00 79 968.0
20260507114631 42 40 0.0 1.0 0.00 0.14 0.00 81 967.9
20260507114609 42 331 0.0 0.0 0.00 0.16 0.00 83 967.9
20260507113627 41 355 0.0 0.0 0.00 0.17 0.00 85 967.9
20260507113127 41 355 0.0 0.0 0.00 0.18 0.00 85 967.9
20260507112845 40 355 0.0 0.0 0.00 0.19 0.00 87 967.9
20260507112127 40 355 0.0 0.0 0.00 0.20 0.00 88 967.9
20260507111625 39 355 0.0 0.0 0.00 0.20 0.00 88 967.9
20260507111124 38 355 0.0 0.0 0.00 0.20 0.00 90 967.7
20260507110625 38 355 0.0 0.0 0.00 0.21 0.00 91 967.7
20260507110347 37 355 0.0 0.0 0.00 0.21 0.00 92 967.6
20260507105846 37 355 0.0 0.0 0.00 0.21 0.00 92 967.6
20260507105123 36 355 0.0 0.0 0.00 0.21 0.00 92 967.6
20260507104621 36 355 0.0 0.0 0.00 0.21 0.00 92 967.5
20260507104122 36 355 0.0 0.0 0.00 0.21 0.00 92 967.6
20260507103827 36 355 0.0 0.0 0.00 0.21 0.00 90 967.5
20260507103707 36 355 0.0 0.0 0.00 0.21 0.00 91 967.5
20260507102617 36 355 0.0 0.0 0.00 0.21 0.00 90 967.5
20260507102116 36 355 0.0 0.0 0.00 0.22 0.00 90 967.3
20260507101616 36 355 0.0 0.0 0.00 0.22 0.00 90 967.4
20260507101117 36 355 0.0 0.0 0.00 0.22 0.00 88 967.4
20260507100617 37 355 0.0 0.0 0.00 0.22 0.00 88 967.4
20260507100117 37 355 0.0 0.0 0.00 0.22 0.00 87 967.3
20260507095617 37 355 0.0 0.0 0.00 0.23 0.00 87 967.3
20260507095117 37 355 0.0 0.0 0.00 0.23 0.00 86 967.3
20260507094837 38 355 0.0 0.0 0.00 0.23 0.00 86 967.3
20260507094115 38 355 0.0 0.0 0.00 0.23 0.00 86 967.3
20260507093841 38 355 0.0 0.0 0.00 0.23 0.00 85 967.3
20260507093120 38 355 0.0 0.0 0.00 0.23 0.00 85 967.2
20260507092620 38 355 0.0 0.0 0.00 0.23 0.00 85 967.1
20260507092119 39 355 0.0 0.0 0.00 0.23 0.00 84 967.1
20260507091618 39 355 0.0 0.0 0.00 0.23 0.00 84 967.2
20260507091118 39 355 0.0 0.0 0.00 0.23 0.00 83 967.2
20260507090618 39 355 0.0 0.0 0.00 0.23 0.00 82 967.2
20260507090339 40 355 0.0 0.0 0.00 0.23 0.00 82 967.2
20260507085839 40 355 0.0 0.0 0.00 0.23 0.00 81 967.2
20260507085117 41 355 0.0 0.0 0.00 0.23 0.00 80 967.1
20260507084617 41 355 0.0 0.0 0.00 0.23 0.00 78 967.1
20260507084115 42 355 0.0 0.0 0.00 0.23 0.00 78 967.2
20260507083837 42 355 0.0 0.0 0.00 0.23 0.00 76 967.3
20260507083117 43 355 0.0 0.0 0.00 0.23 0.00 75 967.2
20260507082615 43 355 0.0 0.0 0.00 0.23 0.00 74 967.3
20260507082116 44 355 0.0 0.0 0.00 0.23 0.00 73 967.3
20260507081613 44 355 0.0 0.0 0.00 0.23 0.00 71 967.3
20260507081114 45 355 0.0 0.0 0.00 0.23 0.00 70 967.4
20260507080611 45 355 0.0 2.0 0.00 0.23 0.00 68 967.3
20260507080111 46 355 0.0 2.0 0.00 0.23 0.00 67 967.3
20260507075610 46 304 0.0 2.0 0.00 0.23 0.00 67 967.3
20260507075111 46 71 0.0 2.0 0.00 0.23 0.00 67 967.3
20260507074608 46 22 0.0 2.0 0.00 0.23 0.00 68 967.2
20260507074108 46 22 0.0 2.0 0.00 0.23 0.00 67 967.3
20260507073608 46 22 0.0 1.0 0.00 0.23 0.00 68 967.3
20260507073106 46 338 0.0 0.0 0.00 0.23 0.00 68 967.4
20260507072602 46 300 0.0 0.0 0.00 0.23 0.00 67 967.4
20260507072059 46 300 0.0 0.0 0.00 0.23 0.00 68 967.3
20260507071602 47 300 0.0 0.0 0.00 0.23 0.00 66 967.2
20260507071054 47 19 0.0 2.0 0.00 0.23 0.00 68 967.3
20260507070548 47 20 0.0 2.0 0.00 0.23 0.00 67 967.2
20260507070043 47 31 0.0 3.0 0.00 0.23 0.00 65 967.2
20260507065537 47 34 0.0 3.0 0.00 0.23 0.00 66 967.2
20260507065248 47 35 0.0 0.0 0.00 0.23 0.00 67 967.3
20260507064525 47 35 0.0 3.0 0.00 0.23 0.00 66 967.3
20260507064242 47 35 0.0 3.0 0.00 0.23 0.00 65 967.3
20260507063513 47 20 0.0 3.0 0.00 0.23 0.00 65 967.3
20260507063007 47 320 0.0 2.0 0.00 0.23 0.00 66 967.3
20260507062723 47 35 0.0 0.0 0.00 0.23 0.00 66 967.4
20260507062438 47 35 0.0 1.0 0.00 0.23 0.00 66 967.5
20260507061449 47 35 0.0 1.0 0.00 0.23 0.00 65 967.5
20260507060942 47 34 0.0 1.0 0.00 0.23 0.00 65 967.6
20260507060702 47 22 0.0 5.0 0.00 0.23 0.00 65 967.7
20260507060154 47 22 0.0 5.0 0.00 0.23 0.00 65 967.7
20260507055425 47 35 0.0 2.0 0.00 0.23 0.00 65 967.6
20260507054918 47 35 0.0 2.0 0.00 0.23 0.00 65 967.6
20260507054901 47 266 0.0 2.0 0.00 0.23 0.00 64 967.6
20260507053915 47 17 0.0 2.0 0.00 0.23 0.00 64 967.6
20260507053623 47 28 0.0 3.0 0.00 0.23 0.00 65 967.5
20260507052859 47 28 0.0 3.0 0.00 0.23 0.00 65 967.5
20260507052356 48 294 0.0 1.0 0.00 0.23 0.00 64 967.6
20260507051854 48 326 0.0 1.0 0.00 0.23 0.00 65 967.7
20260507051351 48 32 0.0 1.0 0.00 0.23 0.00 68 967.8
20260507050851 48 34 0.0 0.0 0.00 0.23 0.00 67 967.8
20260507050347 48 34 0.0 0.0 0.00 0.23 0.00 67 967.7
20260507045846 49 34 0.0 1.0 0.00 0.23 0.00 66 967.7
20260507045343 49 34 0.0 2.0 0.00 0.23 0.00 64 967.6
20260507044842 49 32 0.0 3.0 0.00 0.23 0.00 65 967.7
20260507044600 49 28 0.0 3.0 0.00 0.23 0.00 64 967.7
20260507043841 49 39 0.0 3.0 0.00 0.23 0.00 66 967.7
20260507043342 49 261 0.0 2.0 0.00 0.23 0.00 66 967.5
20260507042845 49 43 0.0 2.0 0.00 0.23 0.00 68 967.7
20260507042343 49 97 0.0 0.0 0.00 0.23 0.00 70 967.7
20260507041841 49 97 0.0 2.0 0.00 0.23 0.00 71 967.6
20260507041341 49 97 0.0 2.0 0.00 0.23 0.00 70 967.4
20260507040841 49 30 0.0 1.0 0.00 0.23 0.00 69 967.2
20260507040339 49 30 1.0 3.0 0.00 0.23 0.00 70 967.2
20260507035838 50 30 1.0 3.0 0.00 0.23 0.23 69 967.4
20260507035602 50 17 0.0 2.0 0.00 0.23 0.23 69 967.4
20260507034832 50 34 0.0 1.0 0.00 0.23 0.23 68 967.3
20260507034326 50 22 0.0 3.0 0.00 0.23 0.23 69 967.5
20260507033820 50 355 1.0 7.0 0.00 0.23 0.23 69 967.5
20260507033313 50 319 2.0 7.0 0.00 0.23 0.23 67 967.3
20260507032808 50 50 2.0 7.0 0.00 0.23 0.23 67 967.3
20260507032305 50 13 2.0 7.0 0.00 0.23 0.23 67 967.2
20260507031756 50 13 1.0 4.0 0.00 0.23 0.23 68 967.2
20260507031250 50 221 1.0 6.0 0.00 0.23 0.23 69 967.3
20260507031004 50 50 1.0 6.0 0.00 0.23 0.23 69 967.3
20260507030237 51 263 1.0 6.0 0.00 0.23 0.23 70 967.1
20260507025732 51 34 1.0 6.0 0.00 0.23 0.23 73 967.0
20260507025455 51 349 2.0 9.0 0.00 0.23 0.23 73 967.1
20260507024719 51 56 2.0 9.0 0.00 0.23 0.23 75 967.0
20260507024214 51 334 1.0 9.0 0.00 0.23 0.23 76 967.0
20260507023708 51 28 1.0 6.0 0.00 0.23 0.23 78 966.9
20260507023201 51 317 1.0 6.0 0.00 0.23 0.23 78 967.0
20260507022655 51 9 1.0 6.0 0.00 0.23 0.23 78 966.7
20260507022150 51 55 1.0 6.0 0.00 0.23 0.23 80 966.6
20260507021644 51 51 1.0 7.0 0.00 0.23 0.23 81 966.5
20260507021138 51 19 1.0 7.0 0.00 0.23 0.23 81 966.6
20260507020637 52 78 1.0 5.0 0.00 0.23 0.23 81 966.6
20260507020126 52 10 1.0 4.0 0.00 0.23 0.23 82 966.6
20260507015620 52 101 1.0 4.0 0.00 0.23 0.23 83 966.6
20260507015114 52 28 0.0 4.0 0.00 0.23 0.23 83 966.8
20260507014608 52 28 0.0 0.0 0.00 0.23 0.23 84 966.9
20260507014102 52 46 0.0 0.0 0.00 0.23 0.23 83 967.1
20260507013759 52 28 0.0 2.0 0.00 0.23 0.23 84 967.0
20260507013647 52 42 0.0 0.0 0.00 0.23 0.23 84 967.0
20260507012544 52 28 0.0 2.0 0.00 0.23 0.23 83 967.0
20260507012255 52 13 0.0 2.0 0.00 0.23 0.23 83 967.0
20260507011532 52 26 0.0 2.0 0.00 0.23 0.23 84 967.0
20260507011454 52 350 0.0 5.0 0.00 0.23 0.23 83 967.2
20260507011026 52 15 0.0 5.0 0.00 0.23 0.23 83 967.0
20260507010015 52 30 0.0 3.0 0.00 0.23 0.23 83 967.1
20260507005508 52 317 0.0 3.0 0.00 0.23 0.23 83 966.9
20260507005002 52 12 0.0 3.0 0.00 0.23 0.23 83 966.8
20260507004456 52 117 0.0 2.0 0.00 0.23 0.23 84 966.9
20260507003950 52 39 0.0 2.0 0.00 0.23 0.23 84 967.1
20260507003709 53 9 0.0 1.0 0.00 0.23 0.23 84 966.9
20260507002938 53 33 0.0 1.0 0.00 0.23 0.23 84 966.8
20260507002915 53 14 0.0 2.0 0.00 0.23 0.23 86 966.7
20260507001926 53 26 1.0 5.0 0.00 0.23 0.23 85 966.6
20260507001420 53 73 0.0 5.0 0.00 0.23 0.23 85 966.4
20260507000914 53 38 0.0 2.0 0.00 0.23 0.23 85 966.3
20260507000636 53 340 0.0 2.0 0.00 0.23 0.23 85 966.3
20260506235902 53 329 1.0 6.0 0.00 0.23 0.23 85 966.2
20260506235356 53 32 1.0 6.0 0.00 0.23 0.23 84 965.9
20260506234849 53 169 0.0 4.0 0.00 0.23 0.23 84 966.0
20260506234344 53 324 1.0 5.0 0.00 0.23 0.23 84 965.9
20260506233838 53 76 1.0 5.0 0.00 0.23 0.23 84 965.8
20260506233332 53 30 0.0 5.0 0.00 0.23 0.23 84 965.7
20260506232826 53 313 0.0 5.0 0.00 0.23 0.23 85 965.7
20260506232320 53 294 1.0 4.0 0.00 0.23 0.23 85 965.4
20260506231820 53 11 1.0 4.0 0.00 0.23 0.23 84 965.4
20260506231316 53 51 0.0 4.0 0.00 0.23 0.23 84 965.5
20260506230817 53 24 1.0 5.0 0.00 0.23 0.23 84 965.3
20260506230320 53 57 1.0 5.0 0.00 0.23 0.23 84 965.4
20260506225815 53 302 2.0 8.0 0.00 0.23 0.23 84 965.6
20260506225315 53 18 2.0 8.0 0.00 0.23 0.23 84 965.6
20260506224816 54 78 2.0 9.0 0.00 0.23 0.23 84 965.6
20260506224538 54 42 1.0 9.0 0.00 0.23 0.23 85 965.6
20260506223815 54 311 2.0 7.0 0.00 0.23 0.23 85 965.5
20260506223316 55 342 2.0 7.0 0.00 0.23 0.23 84 965.4
20260506223134 55 66 1.0 5.0 0.00 0.23 0.23 84 965.2
20260506223041 55 297 1.0 6.0 0.00 0.23 0.23 84 965.0
20260506221813 55 325 1.0 6.0 0.00 0.23 0.23 84 964.9
20260506221313 56 269 1.0 5.0 0.00 0.23 0.23 83 964.9
20260506220813 56 265 1.0 4.0 0.00 0.23 0.23 84 964.8
20260506220313 56 271 1.0 4.0 0.00 0.23 0.23 83 964.8
20260506215808 56 305 1.0 4.0 0.00 0.23 0.23 83 964.8
20260506215530 56 296 1.0 5.0 0.00 0.23 0.23 82 964.8